GW2540 Weather Reports


time (UTC)temp
F
wind
direction
speed
knots
gust
knots
rain 1hr
in
rain 24hr
in
rain mn
in
humidity
%
barometer
mb
20260504184806 56 0 9.6 11.3 0.00 0.00 0.00 40 1015.6
20260504184302 56 0 6.1 7.0 0.00 0.00 0.00 40 1015.6
20260504183758 56 270 11.3 13.0 0.00 0.00 0.00 41 1015.6
20260504183255 56 270 4.3 6.1 0.00 0.00 0.00 41 1015.6
20260504182753 56 270 7.0 11.3 0.00 0.00 0.00 42 1014.9
20260504182250 56 0 7.8 12.2 0.00 0.00 0.00 42 1014.9
20260504181747 56 0 10.4 16.5 0.00 0.00 0.00 43 1014.9
20260504181244 56 0 7.0 8.7 0.00 0.00 0.00 43 1014.9
20260504180743 56 270 2.6 5.2 0.00 0.00 0.00 44 1014.6
20260504180242 56 0 7.8 11.3 0.00 0.00 0.00 44 1014.6
20260504175739 56 0 4.3 9.6 0.00 0.00 0.00 44 1014.3
20260504175235 56 0 7.8 10.4 0.00 0.00 0.00 45 1014.3
20260504174734 56 0 7.0 8.7 0.00 0.00 0.00 46 1014.3
20260504174231 56 270 4.3 6.1 0.00 0.00 0.00 46 1013.9
20260504173727 56 0 7.8 9.6 0.00 0.00 0.00 46 1013.6
20260504173224 56 0 9.6 13.9 0.00 0.00 0.00 46 1013.6
20260504172721 56 0 6.1 8.7 0.00 0.00 0.00 46 1013.3
20260504172217 55 0 6.1 11.3 0.00 0.00 0.00 47 1013.3
20260504171714 55 0 9.6 11.3 0.00 0.00 0.00 47 1013.3
20260504171211 55 0 7.8 9.6 0.00 0.00 0.00 47 1013.3
20260504170708 55 0 13.9 17.4 0.00 0.00 0.00 47 1012.9
20260504170206 55 0 8.7 13.0 0.00 0.00 0.00 48 1012.9
20260504160124 56 0 5.2 8.7 0.00 0.00 0.00 47 1011.2
20260504151051 59 45 4.3 6.1 0.00 0.00 0.00 48 1010.4
20260504150548 59 270 2.6 3.5 0.00 0.00 0.00 48 1010.1
20260504141014 59 0 4.3 6.1 0.00 0.21 0.21 47 1008.8
20260504140511 59 0 4.3 5.2 0.00 0.21 0.21 47 1008.8
20260504130436 61 0 6.1 7.8 0.00 0.21 0.21 46 1007.1
20260504110322 68 270 2.6 5.2 0.00 0.21 0.21 39 1002.6
20260504100240 73 45 7.0 8.7 0.00 0.21 0.21 37 1000.5
20260504081633 77 135 4.3 6.1 0.00 0.21 0.21 38 996.8
20260504081129 78 270 0.9 1.7 0.00 0.21 0.21 38 996.8
20260504080626 78 270 4.3 6.1 0.00 0.21 0.21 39 996.8
20260504080122 78 180 7.0 8.7 0.00 0.21 0.21 39 996.5
20260504050439 85 90 1.7 2.6 0.00 0.21 0.21 49 994.7
20260504045936 85 90 1.7 2.6 0.00 0.21 0.21 50 995.0
20260504045431 85 270 3.5 4.3 0.00 0.21 0.21 50 994.7
20260504044928 85 45 3.5 5.2 0.00 0.21 0.21 49 995.0
20260504044426 85 0 2.6 5.2 0.00 0.21 0.21 50 995.0
20260504043923 85 45 2.6 4.3 0.00 0.21 0.21 50 994.7
20260504043420 86 180 4.3 7.0 0.00 0.21 0.21 51 994.7
20260504042917 86 270 4.3 6.1 0.00 0.21 0.21 53 995.0
20260504042414 85 0 2.6 2.6 0.00 0.21 0.21 53 995.0
20260504041910 85 270 3.5 4.3 0.00 0.21 0.21 53 994.7
20260504041406 84 270 2.6 4.3 0.00 0.21 0.21 56 995.0
20260504040902 84 270 1.7 3.5 0.00 0.21 0.21 57 995.0
20260504040400 83 0 5.2 6.1 0.00 0.21 0.21 57 994.7
20260504035856 83 180 3.5 4.3 0.00 0.21 0.21 58 995.0
20260504035354 82 315 3.5 5.2 0.00 0.21 0.21 58 995.3
20260504034850 82 0 5.2 6.1 0.00 0.21 0.21 58 995.3
20260504034348 82 270 6.1 8.7 0.00 0.21 0.21 59 995.0
20260504033844 82 315 6.1 7.8 0.00 0.21 0.21 59 995.3
20260504033343 82 0 2.6 3.5 0.00 0.21 0.21 59 995.8
20260504032839 81 270 3.5 5.2 0.00 0.21 0.21 59 995.3
20260504032336 81 180 2.6 4.3 0.00 0.21 0.21 59 995.8
20260504031833 80 315 3.5 4.3 0.00 0.21 0.21 61 995.8
20260504031330 80 0 1.7 2.6 0.00 0.21 0.21 61 995.8
20260504030826 80 135 0.9 1.7 0.00 0.21 0.21 62 995.8
20260504030324 79 45 2.6 3.5 0.00 0.21 0.21 63 996.1
20260504025820 79 135 5.2 6.1 0.00 0.21 0.21 63 996.1
20260504025317 79 45 0.9 2.6 0.00 0.21 0.21 64 996.1
20260504024813 79 135 1.7 1.7 0.00 0.21 0.21 64 996.1
20260504024310 78 180 4.3 6.1 0.00 0.21 0.21 65 996.5
20260504023807 78 45 4.3 5.2 0.00 0.21 0.21 65 996.5
20260504023303 78 225 4.3 5.2 0.00 0.21 0.21 66 996.5
20260504022759 78 180 4.3 4.3 0.00 0.21 0.21 66 996.5
20260504022256 78 45 2.6 3.5 0.00 0.21 0.21 67 996.5
20260504021752 77 0 1.7 1.7 0.00 0.21 0.21 68 996.8
20260504021250 77 225 2.6 4.3 0.00 0.21 0.21 68 996.8
20260504020747 77 0 1.7 1.7 0.00 0.21 0.21 68 996.8
20260504020243 76 0 0.9 1.7 0.00 0.21 0.21 68 997.1
20260504015739 76 45 0.9 1.7 0.00 0.21 0.21 68 997.1
20260504015236 76 0 4.3 5.2 0.00 0.21 0.21 69 997.1
20260504014732 76 225 1.7 2.6 0.00 0.21 0.21 69 997.1
20260504014229 75 270 0.9 1.7 0.00 0.21 0.21 69 997.1
20260504013726 75 135 2.6 3.5 0.00 0.21 0.21 69 997.5
20260504013224 75 90 2.6 3.5 0.00 0.21 0.21 70 997.5
20260504012720 75 315 2.6 2.6 0.00 0.21 0.21 70 997.5
20260504012218 74 45 5.2 7.0 0.00 0.21 0.21 70 997.5
20260504011715 74 0 0.9 1.7 0.00 0.21 0.21 70 997.5
20260504011212 74 315 2.6 2.6 0.00 0.21 0.21 70 997.5
20260504010708 73 90 1.7 3.5 0.00 0.21 0.21 72 997.5
20260504010203 73 45 1.7 2.6 0.00 0.21 0.21 72 997.8
20260504005700 73 270 2.6 3.5 0.00 0.21 0.21 73 997.5
20260504005157 72 0 0.9 2.6 0.00 0.21 0.21 73 997.8
20260504004655 72 135 0.9 1.7 0.00 0.21 0.21 73 997.8
20260504004152 72 180 1.7 2.6 0.00 0.21 0.21 73 998.2
20260504003648 72 0 3.5 4.3 0.00 0.21 0.21 74 997.8
20260504003145 72 0 3.5 5.2 0.00 0.21 0.21 74 998.2
20260504002642 71 45 4.3 5.2 0.00 0.21 0.21 74 998.2
20260504002139 71 45 0.9 1.7 0.00 0.21 0.21 75 998.2
20260504001637 71 45 2.6 3.5 0.00 0.21 0.21 75 998.2
20260504001133 70 0 2.6 2.6 0.00 0.21 0.21 75 998.2
20260504000630 70 90 0.0 0.9 0.00 0.21 0.21 76 998.2
20260504000128 70 45 5.2 5.2 0.00 0.21 0.21 76 998.2
20260503235626 70 315 2.6 3.5 0.00 0.21 0.21 77 998.2
20260503235122 69 315 1.7 2.6 0.00 0.21 0.21 78 998.2
20260503234620 69 270 3.5 5.2 0.00 0.21 0.21 79 997.8
20260503234118 69 0 4.3 4.3 0.07 0.21 0.21 80 998.2
20260503233615 68 45 6.1 6.1 0.07 0.21 0.21 80 998.2
20260503233110 68 0 3.5 4.3 0.00 0.20 0.20 81 998.2
20260503232607 68 45 1.7 1.7 0.00 0.20 0.20 81 998.2
20260503232105 67 270 1.7 4.3 0.00 0.20 0.20 81 998.2
20260503231603 67 0 2.6 3.5 0.00 0.20 0.20 81 997.8
20260503231059 67 0 0.9 1.7 0.00 0.20 0.20 82 998.2
20260503230555 67 225 0.9 1.7 0.00 0.20 0.20 81 998.2
20260503230053 67 0 2.6 3.5 0.00 0.20 0.20 81 998.2
20260503225550 67 0 2.6 3.5 0.00 0.20 0.20 82 997.5
20260503225045 67 0 4.3 5.2 0.00 0.20 0.20 82 998.2
20260503224543 67 45 2.6 2.6 0.00 0.20 0.20 84 998.2
20260503224040 66 0 0.9 1.7 0.00 0.20 0.20 85 997.8
20260503223538 66 270 3.5 4.3 0.00 0.20 0.20 87 998.2
20260503223033 65 45 2.6 4.3 0.00 0.20 0.20 87 998.2
20260503222532 65 90 0.9 1.7 0.00 0.20 0.20 88 998.2
20260503222030 66 45 2.6 4.3 0.00 0.20 0.20 90 997.8
20260503221528 65 45 2.6 4.3 0.00 0.20 0.20 91 998.2
20260503221025 65 0 1.7 1.7 0.00 0.20 0.20 91 997.8
20260503220521 64 270 2.6 3.5 0.00 0.20 0.20 91 997.8
20260503220017 64 45 5.2 7.0 0.00 0.20 0.20 91 997.8
20260503215515 63 45 1.7 2.6 0.00 0.20 0.20 91 997.8
20260503215012 63 45 2.6 4.3 0.00 0.20 0.20 91 997.8
20260503214510 63 0 4.3 6.1 0.00 0.20 0.20 92 997.8
20260503214006 63 270 7.8 8.7 0.00 0.20 0.20 92 997.8
20260503213505 63 270 7.0 8.7 0.00 0.20 0.20 92 997.5
20260503213001 63 0 4.3 6.1 0.00 0.20 0.20 92 997.1
20260503212459 63 270 5.2 6.1 0.00 0.20 0.20 92 997.1
20260503211956 63 0 4.3 6.1 0.00 0.20 0.20 91 997.1
20260503211453 63 0 4.3 4.3 0.00 0.20 0.20 91 997.5
20260503210948 63 0 2.6 4.3 0.00 0.20 0.20 92 997.1
20260503210445 63 315 7.0 9.6 0.00 0.20 0.20 92 996.8
20260503205940 64 270 6.1 7.8 0.00 0.20 0.20 93 997.1
20260503205437 64 315 6.1 8.7 0.00 0.20 0.20 93 996.8
20260503204933 65 270 4.3 6.1 0.00 0.20 0.20 93 996.8
20260503204431 65 315 6.1 7.8 0.00 0.20 0.20 93 996.8
20260503203928 65 180 4.3 6.1 0.00 0.20 0.20 93 996.8
20260503203425 65 270 9.6 11.3 0.00 0.20 0.20 93 996.8
20260503202922 65 180 2.6 2.6 0.00 0.20 0.20 93 996.5
20260503202420 66 0 9.6 10.4 0.00 0.20 0.20 94 996.5
20260503201918 66 270 4.3 5.2 0.07 0.20 0.20 94 996.5
20260503201415 66 180 7.8 11.3 0.14 0.20 0.20 93 996.5
20260503200912 65 180 6.1 7.0 0.14 0.19 0.19 93 996.8
20260503200408 65 90 3.5 4.3 0.14 0.18 0.18 92 996.8
20260503195905 64 90 1.7 1.7 0.14 0.17 0.17 92 997.1
20260503195403 64 45 0.9 1.7 0.21 0.15 0.15 91 997.5
20260503194859 64 270 2.6 3.5 0.28 0.14 0.14 91 997.5
20260503194355 64 270 1.7 1.7 0.21 0.12 0.12 91 998.2
20260503193852 65 270 1.7 3.5 0.14 0.09 0.09 91 997.8
20260503193347 65 270 0.9 0.9 0.14 0.08 0.08 91 997.5
20260503192843 65 0 0.9 1.7 0.21 0.07 0.07 91 997.8
20260503192339 65 270 2.6 3.5 0.21 0.06 0.06 91 998.2
20260503191835 65 270 1.7 1.7 0.07 0.04 0.04 91 998.2
20260503191333 65 45 1.7 1.7 0.07 0.02 0.02 90 998.2
20260503190829 65 270 0.0 0.0 0.00 0.01 0.01 90 998.2
20260503190326 65 180 2.6 3.5 0.00 0.01 0.01 90 998.2
20260503185823 64 90 0.0 0.9 0.00 0.01 0.01 89 998.5
20260503185319 64 180 1.7 2.6 0.00 0.01 0.01 89 998.5